カタログに戻る

FENGYUN 1C DEB

運用中SSO
NORAD 30012·DEBRIS·🇨🇳 China

打ち上げ May 10, 1999 から Taiyuan Satellite Launch Center

Loading…

次のパス (今後24時間)

TLE

最新Source: Space-Track

元期: Sep 14, 2026, 03:49 UTC

1 30012U 99025MM  26257.15913132  .00000173  00000-0  17589-3 0  9992
2 30012  99.4268 317.6026 0136881 132.6317 253.7618 13.85916994993638

AllMySatでFENGYUN 1C DEBをリアルタイム追跡

Download on the App Store